Regional Weather Roundup
Issued by NWS Upton, NY

Current Version | Previous Version | Graphics & Text | Print | Product List | Glossary Off
Versions: 1 2 3 4 5 6 7 8 9 10 11 12 13 14 15 16 17 18 19 20 21 22 23 24 25 26 27 28 29 30 31 32 33 34 35 36 37 38 39 40 41 42 43 44 45 46 47 48 49 50
000 ASUS41 KOKX 121408 RWROKX REGIONAL WEATHER ROUNDUP NATIONAL WEATHER SERVICE NEW YORK NY 900 AM EST TUE DEC 12 2017 NOTE: "FAIR" INDICATES FEW OR NO CLOUDS BELOW 12,000 FEET WITH NO SIGNIFICANT WEATHER AND/OR OBSTRUCTIONS TO VISIBILITY. NYZ071-072-176-178-NJZ106-104-121500- NEW YORK CITY METRO AREA CITY SKY/WX TMP DP RH WIND PRES REMARKS Central Park CLOUDY 49 38 65 S9G16 29.63F Bronx Bot Gard N/A 48 37 66 S5 29.63F Bronx Lehman C N/A 48 37 66 S8 N/A LaGuardia APRT CLOUDY 50 39 66 S12 29.61F Queens College N/A 48 39 71 S13 N/A Kennedy INTL CLOUDY 49 41 74 S15 29.64F Breezy Point N/A 48 N/A N/A S17G24 N/A Brooklyn Coll N/A 48 39 71 S9 N/A Staten Island N/A 46 37 71 S8 N/A Newark/Liberty CLOUDY 47 38 71 S12 29.61F Teterboro CLOUDY 49 38 65 S12 29.60F $$ NYZ177-179-078>081-121500- LONG ISLAND NEW YORK CITY SKY/WX TMP DP RH WIND PRES REMARKS Jones Beach N/A 50 N/A N/A S16 N/A Wantagh N/A 50 43 76 S15 N/A Matinecock PT N/A 45 N/A N/A S3 N/A Farmingdale LGT RAIN 48 42 80 S12 29.63F MacArthur/ISP LGT RAIN 49 41 74 S13 29.64F Shirley CLOUDY 49 41 74 S13 29.66F Mt Sinai Harb N/A N/A N/A N/A S7 N/A Westhampton CLOUDY 49 38 65 S9 29.67F East Hampton CLOUDY 47 37 67 S10G20 29.68F Southold N/A 46 37 71 S9 N/A Montauk N/A 49 39 68 S9G18 29.71F $$ NYZ052-065-067-121500- HUDSON VALLEY CITY SKY/WX TMP DP RH WIND PRES REMARKS White Plains LGT RAIN 43 39 86 S5 29.61F Larchmont Harb N/A 46 N/A N/A SE8 N/A Croton On Huds N/A 41 N/A N/A NW1 N/A Somers N/A 39 36 87 SE6 N/A WCI 35 Brewster N/A 39 36 87 SE5 N/A Newburgh CLOUDY 37 37 100 S7 29.62F FOG WCI 32 Montgomery FRZ RAIN 32 31 96 N5 29.59F FOG WCI 27 Otisville N/A 32 32 100 CALM N/A Warwick N/A 41 36 81 S8 N/A Suffern N/A 39 37 93 S3 N/A Poughkeepsie LGT RAIN 37 35 92 SE3 29.61F FOG Albany LGT SNOW 32 29 88 S7 29.60F VSB 1 WCI 26 $$ NJZ001-105-106-008-010-013-015-019>022-104-121500- NEW JERSEY CITY SKY/WX TMP DP RH WIND PRES REMARKS Newark/Liberty CLOUDY 47 38 71 S12 29.61F Teterboro CLOUDY 49 38 65 S12 29.60F Caldwell CLOUDY 45 37 73 S6 29.61F Somerville CLOUDY 37 33 85 CALM 29.59F Linden CLOUDY 46 36 69 S8 29.61F Perth Amboy N/A 45 N/A N/A S8 N/A Sussex CLOUDY 41 34 76 VRB5 29.57F Andover NOT AVBL Trenton LGT RAIN 43 36 76 S7 29.58F Millville CLOUDY 47 37 68 S8G17 29.57F Atlantic City CLOUDY 49 40 71 S8 29.60F Wrightstown CLOUDY 45 38 77 S7 29.57F Toms River CLOUDY 45 40 82 S7 29.61F Belmar CLOUDY 47 40 76 S9 29.61F $$ PAZ047>061-062-071-121500- EASTERN PENNSYLVANIA CITY SKY/WX TMP DP RH WIND PRES REMARKS Philadelphia CLOUDY 46 33 60 S9 29.58F Allentown CLOUDY 40 31 70 E3 29.58F Scranton CLOUDY 38 32 79 SW5 29.53F WCI 34 $$ CTZ002-004>006-009-010-012-RIZ004-006-007-MAZ004-011-015-121500- SOUTHERN NEW ENGLAND IN CT CITY SKY/WX TMP DP RH WIND PRES REMARKS Bradley INTL FRZ RAIN 32 27 81 CALM 29.68F Hartford LGT RAIN 38 32 79 SE7 29.67F WCI 33 Danbury LGT RAIN 40 37 89 SE5 29.64F FOG Wtrbury/Oxford LGT RAIN 37 35 92 SE9 29.64F FOG WCI 30 Norwalk Harbor N/A 45 N/A N/A SE15 N/A Bridgeport LGT RAIN 46 39 76 SE10 29.64F Meriden LGT RAIN 34 33 96 NW3 29.66F FOG New Haven LGT RAIN 46 38 73 SE12 29.65F Chester FAIR 39 32 75 CALM 29.66F Groton CLOUDY 48 38 68 S17 29.70F Wilimantic LGT RAIN 35 30 82 CALM 29.71F IN RI CITY SKY/WX TMP DP RH WIND PRES REMARKS Providence CLOUDY 38 34 85 N6 29.75F WCI 33 Block Island N/A N/A N/A N/A MISG N/A Westerly CLOUDY 48 39 71 S15G23 29.72F IN MA CITY SKY/WX TMP DP RH WIND PRES REMARKS Boston CLOUDY 40 34 79 SE14 29.78F WCI 32 Worcester FLURRIES 29 23 78 NE7 29.70F WCI 22 Westfield LGT SNOW 30 28 92 N5 29.68F VSB 3/4 WCI 25 Provincetown CLOUDY 43 35 73 SE9 29.78F Nantucket CLOUDY 46 40 79 SE15 29.78F $$ ANZ330-335-338-340-345-350-353-355-121500- COASTAL MARINE OBSERVATIONS STATION/POSITION TIME SKY/WX TEMP WIND PRES VSBY WAVE AIR SEA DIR/SP/G HT/PER (UTC) (F) (DEG/KT/KT) (MB) (MI) (FT/S) NY HARB ENTRANCE 1250 51 53 180/ 21/ 25 1003.3 6/ 6 20 S FIRE ISLAND 1250 51 54 170/ 19/ 23 1004.7 5/ 5 GREAT SOUTH BAY 1330 47 45 180/ 16/ 17 N/A HUDSON CANYON 1250 53 56 170/ 19/ 23 1005.8 4/ 8 KINGS POINT 1330 49 46 230/ 15/ 18 1004.0 EXECUTION ROCKS 1330 47 160/ 8/ 12 N/A WESTERN LI SOUND 1249 45 130/ 10/ 12 N/A 1 CENTRAL LI SOUND 1315 47 150/ 14/ 17 N/A 1 ROBBINS REEF 1330 48 170/ 16/ 18 1003.7 $$ >>>>>>>>>>>>>>>>>>>>>>>>>>>> KEY <<<<<<<<<<<<<<<<<<<<<<<<<<< > < > SKY/WX - Sky Condition/Present Weather < > TMP - Temperature in Fahrenheit < > DP - Dew Point in Fahrenheit < > RH - Relative Humidity in Percent < > WIND - Direction (from) and Speed in MPH < > PRES - Mean Sea Level Pressure (inches of Hg) < > WCI - Wind Chill Index < > VSB - VISIBILITY IN MILES < > HX - HEAT INDEX < > TC - TEMPERATURE IN CELSIUS < > VRB - VARIABLE WIND DIRECTION < > < >>>>>>>>>>>>>>>>>>>>>>>>>>>> KEY <<<<<<<<<<<<<<<<<<<<<<<<<<<

USA.gov is the U.S. government's official web portal to all federal, state and local government web resources and services.